Weather History for Fountain Dale, PA

Change the Weather History Date:

Monday, February 4, 2013

  Actual Average (KHGR) Record (KHGR)
Temperature  
Mean Temperature 27 °F -  
Max Temperature 33 °F 39 °F 55 °F (1999)
Min Temperature 21 °F 24 °F 12 °F (2007)
Degree Days  
Heating Degree Days 38    
Moisture  
Dew Point 14 °F    
Average Humidity 58    
Maximum Humidity 86    
Minimum Humidity 43    
Precipitation  
Precipitation 0.00 in - - ()
Sea Level Pressure  
Sea Level Pressure 29.98 in    
Wind  
Wind Speed 7 mph (West)    
Max Wind Speed 13 mph    
Max Gust Speed 20 mph    
Visibility 9 miles    
Events Snow    
Averages and records for this station are not official NWS values.
T = Trace of Precipitation, MM = Missing Value Source: NWS Daily Summary

Daily Weather History Graph

Daily Weather History Graph

Search for Another Location

Airport:

Trip Planner

Search our weather history database for the weather conditions in past years. The results will help you decide how hot, cold, wet, or windy it might be!

Date:

Astronomy

Feb. 04, 2013 Rise Set
Actual Time 7:14 AM EST 5:33 PM EST
Civil Twilight 6:46 AM EST 6:01 PM EST
Nautical Twilight 6:14 AM EST 6:33 PM EST
Astronomical Twilight 5:42 AM EST 7:05 PM EST
Moon 1:47 AM EST (2/4) 11:55 AM EST (2/4)
Length of Visible Light 11h 15m
Length of Day
10h 18m
Last Quarter, 37% of the Moon is Illuminated
Feb 4
Last Quarter
Feb 10
New
Feb 17
First Quarter
Feb 25
Full
Mar 4
Last Quarter

Hourly Weather History & Observations

Time (EST) Temp. Windchill Dew Point Humidity Pressure Visibility Wind Dir Wind Speed Gust Speed Precip Events Conditions
12:53 AM 25.0 °F 15.5 °F 14.0 °F 63% 29.96 in 10.0 mi West 9.2 mph - N/A   Overcast
1:53 AM 24.1 °F 12.5 °F 8.1 °F 51% 29.98 in 10.0 mi WNW 12.7 mph 19.6 mph N/A   Scattered Clouds
2:53 AM 23.0 °F 13.1 °F 7.0 °F 50% 29.99 in 10.0 mi NW 9.2 mph - N/A   Partly Cloudy
3:53 AM 21.9 °F 14.5 °F 7.0 °F 53% 29.99 in 10.0 mi Variable 5.8 mph 18.4 mph N/A   Mostly Cloudy
5:53 AM 21.0 °F - 9.0 °F 60% 30.01 in 10.0 mi Calm Calm - N/A   Mostly Cloudy
6:53 AM 21.0 °F 12.4 °F 8.1 °F 57% 30.03 in 10.0 mi Variable 6.9 mph - N/A   Clear
7:53 AM 21.9 °F 12.5 °F 7.0 °F 53% 30.06 in 10.0 mi West 8.1 mph - N/A   Overcast
9:53 AM 25.0 °F 16.3 °F 7.0 °F 46% 30.09 in 10.0 mi WNW 8.1 mph - N/A   Overcast
10:53 AM 26.1 °F 16.8 °F 9.0 °F 49% 30.07 in 10.0 mi West 9.2 mph 18.4 mph N/A   Clear
11:53 AM 27.0 °F 23.0 °F 10.9 °F 51% 30.03 in 10.0 mi Variable 3.5 mph - N/A   Partly Cloudy
12:53 PM 30.9 °F 25.2 °F 12.0 °F 46% 30.01 in 10.0 mi Variable 5.8 mph - N/A   Overcast
1:53 PM 33.1 °F 25.5 °F 12.9 °F 43% 29.98 in 10.0 mi SW 9.2 mph - N/A   Partly Cloudy
2:53 PM 33.1 °F 25.5 °F 12.9 °F 43% 29.96 in 10.0 mi WSW 9.2 mph 16.1 mph N/A   Mostly Cloudy
3:53 PM 33.1 °F 26.1 °F 14.0 °F 46% 29.96 in 10.0 mi WSW 8.1 mph - N/A   Overcast
4:53 PM 33.1 °F 28.7 °F 14.0 °F 46% 29.95 in 10.0 mi WSW 4.6 mph - N/A   Overcast
5:53 PM 32.0 °F 27.5 °F 18.0 °F 56% 29.94 in 10.0 mi SW 4.6 mph - N/A   Overcast
6:53 PM 30.0 °F - 21.9 °F 72% 29.95 in 6.0 mi Calm Calm - 0.00 in   Haze
7:53 PM 30.0 °F 25.2 °F 21.9 °F 72% 29.95 in 7.0 mi West 4.6 mph - N/A   Overcast
9:26 PM 28.4 °F - 24.8 °F 86% 29.88 in 2.0 mi Calm Calm - 0.00 in Snow Light Snow
10:53 PM 28.9 °F - 24.1 °F 82% 29.91 in 8.0 mi Calm Calm - 0.00 in   Overcast
11:53 PM 28.9 °F - 25.0 °F 85% 29.89 in 7.0 mi Calm Calm - 0.00 in   Overcast